Location: Paris
(48.6709°N, 2.3750°E)
Time: 13:13:09
(UTC+02:00)

KKS-1 - Pass Details

Date: 08 July 2022
Orbit: 634 x 649 km, 98.2° (Epoch: 18 August)

Event Time Altitude Azimuth Distance (km) Brightness Sun altitude
Rises 00:30:47 0° 9° (N) 2,976 ? -16.3°
Reaches altitude 10° 00:33:03 10° 4° (N) 2,060 ? -16.5°
Maximum altitude 00:37:23 50° 290° (WNW) 830 ? -16.7°
Enters shadow 00:41:04 14° 218° (SW) 1,802 ? -16.9°
